GW4110 Weather Reports


time (UTC)temp
F
wind
direction
speed
knots
gust
knots
rain 1hr
in
rain 24hr
in
rain mn
in
humidity
%
barometer
mb
20260505233934 64 205 0.0 0.0 0.00 0.00 0.00 65 1016.5
20260505233432 64 206 0.0 0.0 0.00 0.00 0.00 65 1016.5
20260505232930 64 170 0.0 0.0 0.00 0.00 0.00 66 1016.6
20260505232427 64 201 0.0 0.0 0.00 0.00 0.00 66 1016.6
20260505231924 64 187 0.0 0.0 0.00 0.00 0.00 66 1016.6
20260505231422 64 203 0.0 0.9 0.00 0.00 0.00 66 1016.4
20260505230919 64 200 0.0 0.9 0.00 0.00 0.00 66 1016.4
20260505230417 64 196 0.0 0.9 0.00 0.00 0.00 66 1016.6
20260505225913 64 200 0.0 0.0 0.00 0.00 0.00 65 1016.5
20260505225411 64 132 0.0 0.0 0.00 0.00 0.00 65 1016.6
20260505224911 64 144 0.0 0.0 0.00 0.00 0.00 67 1016.6
20260505224409 64 182 0.0 0.9 0.00 0.00 0.00 66 1016.5
20260505223906 64 280 1.7 1.7 0.00 0.00 0.00 65 1016.6
20260505223403 64 176 0.0 0.0 0.00 0.00 0.00 67 1016.7
20260505222859 64 356 0.0 0.0 0.00 0.00 0.00 66 1016.6
20260505222355 63 178 0.0 0.0 0.00 0.00 0.00 69 1016.7
20260505221852 63 196 0.9 0.9 0.00 0.00 0.00 68 1016.8
20260505221349 63 174 0.0 0.0 0.00 0.00 0.00 68 1016.8
20260505220846 63 151 0.0 0.9 0.00 0.00 0.00 69 1016.8
20260505220343 63 331 1.7 2.6 0.00 0.00 0.00 68 1016.8
20260505215841 63 85 0.9 0.9 0.00 0.00 0.00 69 1016.9
20260505215339 63 130 0.0 0.0 0.00 0.00 0.00 68 1017.0
20260505214837 62 198 0.9 1.7 0.00 0.00 0.00 68 1016.8
20260505214334 62 334 1.7 2.6 0.00 0.00 0.00 69 1017.0
20260505213831 62 339 1.7 2.6 0.00 0.00 0.00 68 1017.1
20260505213329 63 152 0.0 0.0 0.00 0.00 0.00 68 1017.1
20260505212824 62 173 0.0 0.0 0.00 0.00 0.00 69 1017.3
20260505212322 62 359 1.7 2.6 0.00 0.00 0.00 69 1017.2
20260505211817 63 180 0.9 1.7 0.00 0.00 0.00 68 1017.2
20260505211316 62 141 0.0 0.0 0.00 0.00 0.00 69 1017.0
20260505210812 62 340 1.7 2.6 0.00 0.00 0.00 69 1017.1
20260505210309 62 71 2.6 2.6 0.00 0.00 0.00 69 1017.0
20260505205806 62 330 0.9 0.9 0.00 0.00 0.00 70 1017.1
20260505205305 62 114 1.7 1.7 0.00 0.00 0.00 69 1016.9
20260505204800 63 319 1.7 2.6 0.00 0.00 0.00 68 1016.9
20260505204258 64 302 1.7 1.7 0.00 0.00 0.00 65 1016.9
20260505203755 64 162 0.0 0.0 0.00 0.00 0.00 65 1017.1
20260505203252 66 199 0.9 0.9 0.00 0.00 0.00 64 1016.8
20260505202748 64 198 0.0 0.0 0.00 0.00 0.00 66 1016.9
20260505202244 63 155 0.9 0.9 0.00 0.00 0.00 69 1016.9
20260505201741 63 176 0.0 0.0 0.00 0.00 0.00 70 1017.0
20260505201239 62 203 0.9 0.9 0.00 0.00 0.00 69 1017.0
20260505200737 62 199 0.9 0.9 0.00 0.00 0.00 71 1017.1
20260505200234 62 257 0.9 0.9 0.00 0.00 0.00 71 1017.1
20260505195729 62 190 0.0 0.9 0.00 0.00 0.00 71 1017.4
20260505195227 61 189 0.9 0.9 0.00 0.00 0.00 72 1017.3
20260505194724 61 208 0.0 0.0 0.00 0.00 0.00 72 1017.4
20260505194220 61 193 0.0 0.0 0.00 0.00 0.00 72 1017.3
20260505193716 61 217 0.0 0.0 0.00 0.00 0.00 73 1017.3
20260505193213 62 171 0.9 0.9 0.00 0.00 0.00 71 1017.5
20260505192712 61 179 0.9 0.9 0.00 0.00 0.00 72 1017.5
20260505192209 61 213 0.9 1.7 0.00 0.00 0.00 72 1017.4
20260505191707 62 251 0.9 0.9 0.00 0.00 0.00 71 1017.2
20260505191205 61 180 0.9 0.9 0.00 0.00 0.00 71 1017.3
20260505190701 62 201 1.7 1.7 0.00 0.00 0.00 70 1017.3
20260505190201 61 188 0.0 0.0 0.00 0.00 0.00 72 1017.2
20260505185658 61 208 0.9 0.9 0.00 0.00 0.00 72 1017.4
20260505185154 61 218 0.0 0.9 0.00 0.00 0.00 72 1017.2
20260505184651 60 225 0.0 0.9 0.00 0.00 0.00 73 1017.3
20260505184148 60 202 1.7 1.7 0.00 0.00 0.00 73 1017.2
20260505183645 60 221 0.9 1.7 0.00 0.00 0.00 73 1017.3
20260505183142 59 165 0.0 0.0 0.00 0.00 0.00 75 1017.3
20260505182638 58 206 0.9 0.9 0.00 0.00 0.00 76 1017.3
20260505182136 59 201 0.9 0.9 0.00 0.00 0.00 75 1017.3
20260505181632 59 170 0.0 0.0 0.00 0.00 0.00 75 1017.4
20260505181129 59 222 0.0 0.0 0.00 0.00 0.00 75 1017.2
20260505180625 58 143 0.0 0.0 0.00 0.00 0.00 76 1017.3
20260505180123 58 152 0.9 0.9 0.00 0.00 0.00 76 1017.1
20260505175619 58 178 0.0 0.0 0.00 0.00 0.00 77 1017.2
20260505175115 58 227 0.9 0.9 0.00 0.00 0.00 76 1017.2
20260505174612 58 155 0.0 0.0 0.00 0.00 0.00 75 1017.1
20260505174108 58 166 0.0 0.0 0.00 0.00 0.00 75 1017.1
20260505173605 58 199 0.0 0.0 0.00 0.00 0.00 75 1017.0
20260505173102 58 345 1.7 1.7 0.00 0.00 0.00 74 1016.9
20260505172559 59 181 0.0 0.0 0.00 0.00 0.00 72 1016.8
20260505172056 59 251 0.9 1.7 0.00 0.00 0.00 71 1016.8
20260505171551 59 292 0.9 0.9 0.00 0.00 0.00 71 1016.7
20260505171048 59 139 0.0 0.0 0.00 0.00 0.00 71 1016.7
20260505170545 59 184 0.0 0.0 0.00 0.00 0.00 71 1016.9
20260505170042 58 184 0.0 0.0 0.00 0.00 0.00 72 1016.4
20260505165537 58 193 0.0 0.0 0.00 0.00 0.00 73 1016.7
20260505165032 58 165 0.0 0.9 0.00 0.00 0.00 72 1016.7
20260505164528 58 240 0.9 0.9 0.00 0.00 0.00 72 1016.7
20260505164026 58 197 0.0 0.0 0.00 0.00 0.00 71 1016.7
20260505163525 58 188 0.0 0.0 0.00 0.00 0.00 73 1016.8
20260505163021 58 189 0.0 0.0 0.00 0.00 0.00 73 1016.6
20260505162514 57 179 0.0 0.0 0.00 0.00 0.00 72 1016.5
20260505162011 57 170 0.0 0.0 0.00 0.00 0.00 74 1016.6
20260505161508 57 158 0.0 0.9 0.00 0.00 0.00 74 1016.6
20260505161005 57 174 0.0 0.0 0.00 0.00 0.00 76 1016.5
20260505160503 57 164 0.9 0.9 0.00 0.00 0.00 75 1016.4
20260505152940 56 162 0.0 0.0 0.00 0.00 0.00 80 1016.4
20260505152437 56 164 0.0 0.0 0.00 0.00 0.00 80 1016.4
20260505151937 55 176 0.0 0.0 0.00 0.00 0.00 81 1016.4
20260505151433 55 176 0.0 0.0 0.00 0.00 0.00 82 1016.3
20260505150931 55 151 0.0 0.0 0.00 0.00 0.00 81 1016.3
20260505150428 55 181 0.0 0.0 0.00 0.00 0.00 83 1016.2
20260505140357 53 182 0.0 0.0 0.00 0.00 0.00 86 1015.8
20260505124811 53 192 0.0 0.0 0.00 0.00 0.00 89 1015.7
20260505124308 53 197 0.0 0.0 0.00 0.00 0.00 89 1015.7
20260505123804 53 182 0.0 0.0 0.00 0.00 0.00 89 1015.6
20260505123300 52 182 0.0 0.0 0.00 0.00 0.00 89 1015.9
20260505122757 53 182 0.0 0.0 0.00 0.00 0.00 89 1015.8
20260505122255 53 175 0.0 0.0 0.00 0.00 0.00 89 1015.7
20260505121751 52 172 0.0 0.0 0.00 0.00 0.00 89 1015.9
20260505121247 53 170 0.0 0.0 0.00 0.00 0.00 89 1015.8
20260505120744 53 168 0.0 0.0 0.00 0.00 0.00 89 1015.8
20260505120240 53 168 0.0 0.0 0.00 0.00 0.00 89 1015.8
20260505115739 52 177 0.0 0.0 0.00 0.00 0.00 88 1015.7
20260505115236 52 177 0.0 0.0 0.00 0.00 0.00 88 1015.8
20260505114734 52 177 0.0 0.0 0.00 0.00 0.00 87 1015.9
20260505114230 52 176 0.0 0.0 0.00 0.00 0.00 87 1015.8
20260505113726 53 176 0.0 0.0 0.00 0.00 0.00 87 1015.9
20260505113223 53 182 0.0 0.0 0.00 0.00 0.00 86 1016.0
20260505112719 53 179 0.0 0.0 0.00 0.00 0.00 86 1015.9
20260505112217 53 184 0.0 0.0 0.00 0.00 0.00 85 1015.9
20260505111717 53 184 0.0 0.0 0.00 0.00 0.00 85 1016.1
20260505111213 53 183 0.0 0.0 0.00 0.00 0.00 84 1015.9
20260505110709 53 184 0.0 0.0 0.00 0.00 0.00 84 1015.9
20260505110207 53 174 0.0 0.0 0.00 0.00 0.00 83 1015.9
20260505102142 53 184 0.0 0.0 0.00 0.00 0.00 80 1016.0
20260505101641 53 186 0.0 0.0 0.00 0.00 0.00 80 1015.8
20260505101137 53 181 0.0 0.0 0.00 0.00 0.00 80 1016.1
20260505100633 53 174 0.0 0.0 0.00 0.00 0.00 81 1016.2
20260505100130 53 186 0.0 0.0 0.00 0.00 0.00 80 1016.0
20260505095626 53 187 0.0 0.0 0.00 0.00 0.00 79 1016.0
20260505095123 53 187 0.0 0.0 0.00 0.00 0.00 79 1016.1
20260505094619 54 190 0.0 0.0 0.00 0.00 0.00 78 1016.2
20260505094116 54 174 0.0 0.0 0.00 0.00 0.00 77 1016.1
20260505093612 54 183 0.0 0.0 0.00 0.00 0.00 76 1016.2
20260505093109 54 158 0.0 0.0 0.00 0.00 0.00 76 1016.2
20260505092607 54 191 0.9 0.9 0.00 0.00 0.00 75 1016.3
20260505092106 54 239 0.0 0.0 0.00 0.00 0.00 75 1016.2
20260505091602 54 189 0.0 0.0 0.00 0.00 0.00 74 1016.1
20260505091100 54 152 0.0 0.0 0.00 0.00 0.00 74 1016.1
20260505090557 54 189 0.0 0.0 0.00 0.00 0.00 74 1016.3
20260505090055 55 233 0.9 0.9 0.00 0.00 0.00 74 1016.3
20260505085553 55 179 0.0 0.9 0.00 0.00 0.00 73 1016.5
20260505085051 55 251 0.9 0.9 0.00 0.00 0.00 73 1016.6
20260505084549 55 297 0.9 1.7 0.00 0.00 0.00 73 1016.2
20260505084047 55 250 0.9 0.9 0.00 0.00 0.00 73 1016.7
20260505083543 55 195 0.0 0.0 0.00 0.00 0.00 73 1016.8
20260505083040 55 334 1.7 1.7 0.00 0.00 0.00 73 1016.9
20260505082536 55 275 0.0 0.9 0.00 0.00 0.00 72 1016.9
20260505082033 55 247 0.9 1.7 0.00 0.00 0.00 72 1016.8
20260505081529 55 20 2.6 3.5 0.00 0.00 0.00 71 1016.8
20260505081026 55 217 0.9 0.9 0.00 0.00 0.00 71 1016.9
20260505080522 55 216 1.7 1.7 0.00 0.00 0.00 71 1016.6
20260505080019 55 290 1.7 1.7 0.00 0.00 0.00 71 1016.8
20260505075515 55 184 0.0 0.0 0.00 0.00 0.00 71 1016.9
20260505075012 55 224 0.0 1.7 0.00 0.00 0.00 71 1016.9
20260505074510 55 286 1.7 1.7 0.00 0.00 0.00 71 1017.0
20260505074007 55 188 0.0 0.9 0.00 0.00 0.00 71 1016.8
20260505073504 55 274 1.7 1.7 0.00 0.00 0.00 71 1016.8
20260505073002 55 303 0.9 1.7 0.00 0.00 0.00 71 1016.9
20260505072457 55 202 1.7 1.7 0.00 0.00 0.00 72 1016.7
20260505071953 55 250 0.9 0.9 0.00 0.00 0.00 73 1016.8
20260505071449 55 298 0.9 1.7 0.00 0.00 0.00 73 1016.6
20260505070948 55 189 0.0 0.0 0.00 0.00 0.00 74 1016.6
20260505070444 55 234 1.7 1.7 0.00 0.00 0.00 74 1016.7
20260505065940 55 300 0.9 1.7 0.00 0.00 0.00 74 1016.4
20260505065436 55 237 0.9 0.9 0.00 0.00 0.00 75 1016.3
20260505064933 55 295 1.7 2.6 0.00 0.00 0.00 75 1016.7
20260505064430 55 302 1.7 1.7 0.00 0.00 0.00 75 1016.5
20260505063929 55 299 0.9 0.9 0.00 0.00 0.00 77 1016.5
20260505063425 55 195 0.0 0.0 0.00 0.00 0.00 78 1016.6
20260505062921 55 225 0.9 0.9 0.00 0.00 0.00 78 1016.5
20260505062419 55 351 1.7 2.6 0.00 0.00 0.00 79 1016.6
20260505061915 55 188 0.9 0.9 0.00 0.00 0.00 79 1016.5
20260505061414 55 199 0.0 0.0 0.00 0.00 0.00 79 1016.4
20260505060911 56 226 0.0 0.0 0.00 0.00 0.00 78 1016.4
20260505060408 56 299 0.9 0.9 0.00 0.00 0.00 78 1016.2
20260505055904 56 196 0.0 0.0 0.00 0.00 0.00 79 1016.3
20260505055400 56 195 0.0 0.0 0.00 0.00 0.00 79 1016.5
20260505054857 56 189 0.0 0.0 0.00 0.00 0.00 79 1016.4
20260505054354 56 239 0.9 0.9 0.00 0.00 0.00 80 1016.5
20260505053852 56 297 1.7 3.5 0.00 0.00 0.00 79 1016.5
20260505053349 56 288 0.9 0.9 0.00 0.00 0.00 80 1016.5
20260505052846 57 324 1.7 1.7 0.00 0.00 0.00 80 1016.7
20260505052343 57 254 1.7 1.7 0.00 0.00 0.00 80 1016.8
20260505051840 57 267 0.9 1.7 0.00 0.00 0.00 79 1017.0
20260505051337 57 247 0.0 0.9 0.00 0.00 0.00 78 1017.0
20260505050835 57 170 0.0 0.0 0.00 0.00 0.00 78 1017.0
20260505050334 57 194 0.0 0.0 0.00 0.00 0.00 78 1017.0
20260505041300 57 261 0.9 0.9 0.00 0.00 0.00 77 1016.6
20260505040758 57 231 0.9 0.9 0.00 0.00 0.00 76 1016.3
20260505040255 57 185 0.9 1.7 0.00 0.00 0.00 76 1016.4
20260505035752 57 194 0.9 0.9 0.00 0.00 0.00 76 1016.3
20260505035248 57 342 0.9 2.6 0.00 0.00 0.00 75 1016.2
20260505034745 57 311 0.9 0.9 0.00 0.00 0.00 75 1016.4
20260505034242 58 180 0.0 0.9 0.00 0.00 0.00 74 1016.2
20260505033738 58 316 1.7 1.7 0.00 0.00 0.00 73 1016.1
20260505033236 58 231 2.6 3.5 0.00 0.00 0.00 72 1016.1
20260505032734 58 204 1.7 1.7 0.00 0.00 0.00 72 1015.9
20260505032229 58 312 0.9 0.9 0.00 0.00 0.00 71 1015.9
20260505031727 59 272 0.9 0.9 0.00 0.00 0.00 71 1015.8
20260505031223 59 284 0.9 1.7 0.00 0.00 0.00 70 1015.9
20260505030720 59 301 1.7 2.6 0.00 0.00 0.00 69 1015.8
20260505030216 59 318 1.7 2.6 0.00 0.00 0.00 69 1015.8
20260505025712 59 357 4.3 6.1 0.00 0.00 0.00 68 1015.9
20260505025211 60 262 1.7 2.6 0.00 0.00 0.00 67 1015.8
20260505024709 60 229 1.7 1.7 0.00 0.00 0.00 67 1015.8
20260505024205 60 264 0.9 0.9 0.00 0.00 0.00 66 1015.8
20260505023703 60 244 0.9 0.9 0.00 0.00 0.00 66 1015.7
20260505023200 60 352 2.6 2.6 0.00 0.00 0.00 66 1015.7
20260505022658 60 316 1.7 1.7 0.00 0.00 0.00 66 1016.0
20260505022154 60 202 1.7 3.5 0.00 0.00 0.00 65 1015.6
20260505021651 60 318 2.6 2.6 0.00 0.00 0.00 64 1015.8
20260505021148 60 48 0.9 0.9 0.00 0.00 0.00 62 1015.8
20260505020643 61 284 0.9 0.9 0.00 0.00 0.00 61 1015.8
20260505020139 61 194 0.0 0.9 0.00 0.00 0.00 59 1015.6
20260505015637 61 248 1.7 1.7 0.00 0.00 0.00 59 1015.6
20260505015133 61 238 0.9 0.9 0.00 0.00 0.00 59 1015.5
20260505014630 61 334 2.6 3.5 0.00 0.00 0.00 59 1015.8
20260505014127 61 350 3.5 6.1 0.00 0.00 0.00 58 1015.6
20260505013625 61 341 3.5 6.1 0.00 0.00 0.00 59 1015.8
20260505013121 62 322 3.5 6.1 0.00 0.00 0.00 59 1015.7
20260505012615 62 280 2.6 3.5 0.00 0.00 0.00 60 1015.5
20260505012111 63 296 2.6 2.6 0.00 0.00 0.00 59 1015.7
20260505011607 62 355 1.7 2.6 0.00 0.00 0.00 60 1015.7
20260505011104 63 188 0.9 1.7 0.00 0.00 0.00 59 1015.8
20260505010559 64 222 2.6 3.5 0.00 0.00 0.00 59 1015.7
20260505010056 63 341 3.5 5.2 0.00 0.00 0.00 59 1015.9
20260505005552 63 310 1.7 1.7 0.00 0.00 0.00 60 1015.9
20260505005050 63 319 3.5 3.5 0.00 0.00 0.00 61 1016.1
20260505004546 63 227 2.6 3.5 0.00 0.00 0.00 61 1015.9
20260505004043 63 199 0.0 0.9 0.00 0.00 0.00 61 1016.0
20260505003541 64 284 1.7 2.6 0.00 0.00 0.00 61 1015.9
20260505003038 63 227 0.0 0.0 0.00 0.00 0.00 61 1016.0
20260505002537 63 221 1.7 2.6 0.00 0.00 0.00 63 1016.0
20260505002032 62 36 0.9 0.9 0.00 0.00 0.00 64 1016.0
20260505001529 62 311 1.7 2.6 0.00 0.00 0.00 63 1016.0
20260505001026 62 273 0.9 1.7 0.00 0.00 0.00 64 1016.0
20260505000523 62 214 0.9 0.9 0.00 0.00 0.00 65 1016.1
20260505000021 62 170 0.0 0.0 0.00 0.00 0.00 64 1016.0
20260504235517 62 162 0.9 0.9 0.00 0.00 0.00 65 1016.0
20260504235014 62 329 3.5 3.5 0.00 0.00 0.00 65 1015.9
20260504234511 63 266 0.9 0.9 0.00 0.00 0.00 64 1015.9